Location: Abraham Lincoln Continuation High School
(33.9711°N, 117.3662°W)
Time: 14:30:58
(UTC+00:00)

DELTA 2 R/B (1) - Pass Details

Date: 21 September 2020
Orbit: 790 x 803 km, 39.6° (Epoch: 28 October)

Event Time Altitude Azimuth Distance (km) Brightness Sun altitude
Rises 02:59:02 0° 292° (WNW) 3,278 8.5 -15.4°
Reaches altitude 10° 03:01:30 10° 291° (WNW) 2,347 7.3 -16.0°
Maximum altitude 03:07:03 80° 205° (SSW) 802 3.6 -17.1°
Enters shadow 03:09:58 29° 122° (ESE) 1,415 4.3 -17.7°
